Temp
-4 -5 -5 -5 -6 -6 -6 -6 -6 -7 -7 -7 -6 -6 -7 -7 -8 -8 -8 -8 -8 -9 -9 -9 -9 -9 -9 -9 -9 -10 -10 -10 -11 -11 -12 -12 -13 -14 -15 -16 -16 -17
-4 -5 -5 -6 -6 -6 -6 -6 -6 -7 -7 -7 -6 -7 -7 -7 -8 -8 -8 -8 -8 -9 -9 -9 -9 -9 -9 -9 -9 -10 -10 -10 -11 -11 -12 -13 -13 -14 -15 -16 -16 -17
-5 -5 -5 -6 -6 -6 -6 -6 -7 -7 -7 -7 -7 -7 -7 -7 -8 -8 -8 -8 -9 -9 -9 -9 -9 -9 -9 -9 -10 -10 -10 -10 -11 -11 -12 -13 -13 -14 -15 -16 -16 -17
-5 -5 -6 -6 -6 -6 -6 -6 -7 -7 -7 -7 -7 -7 -7 -7 -8 -8 -8 -8 -9 -9 -9 -9 -9 -9 -9 -9 -10 -10 -10 -11 -11 -12 -12 -13 -14 -14 -15 -16 -16 -17
-5 -5 -6 -6 -6 -6 -6 -6 -7 -7 -7 -7 -7 -7 -7 -7 -8 -8 -8 -9 -9 -9 -9 -9 -9 -9 -9 -10 -10 -10 -10 -11 -11 -12 -13 -13 -14 -14 -15 -16 -16 -17
-5 -5 -6 -6 -6 -7 -6 -6 -7 -7 -7 -7 -7 -7 -7 -7 -8 -8 -8 -9 -9 -9 -9 -9 -9 -9 -10 -10 -10 -10 -11 -11 -11 -12 -12 -13 -14 -14 -15 -16 -16 -16
-5 -5 -6 -6 -6 -7 -6 -6 -7 -7 -7 -7 -7 -7 -8 -7 -8 -8 -8 -9 -9 -9 -9 -10 -10 -10 -10 -10 -10 -10 -11 -11 -11 -12 -13 -13 -14 -14 -15 -16 -16 -16
-5 -5 -6 -6 -7 -7 -6 -6 -7 -7 -7 -7 -7 -8 -8 -8 -8 -8 -8 -9 -9 -9 -10 -10 -10 -10 -10 -10 -10 -10 -11 -11 -11 -12 -13 -13 -14 -14 -15 -16 -16 -16
-5 -5 -6 -6 -6 -6 -6 -6 -7 -7 -7 -7 -7 -8 -8 -8 -8 -8 -8 -9 -9 -9 -10 -10 -10 -10 -10 -10 -10 -10 -11 -11 -11 -12 -12 -13 -14 -14 -15 -15 -16 -16
-5 -5 -5 -6 -6 -6 -6 -6 -7 -7 -7 -7 -8 -8 -8 -8 -8 -8 -8 -9 -9 -10 -10 -10 -10 -10 -10 -10 -10 -10 -10 -11 -11 -12 -12 -13 -14 -14 -15 -15 -16 -16
-5 -5 -5 -5 -6 -6 -6 -7 -7 -7 -7 -7 -8 -8 -8 -8 -8 -8 -8 -9 -9 -10 -10 -10 -10 -10 -10 -10 -10 -10 -10 -11 -11 -12 -12 -13 -13 -14 -15 -15 -16 -16
-5 -5 -6 -6 -6 -6 -7 -7 -7 -7 -8 -8 -8 -8 -8 -8 -8 -8 -8 -9 -9 -10 -10 -10 -10 -10 -10 -10 -10 -10 -10 -11 -11 -12 -12 -13 -14 -14 -15 -16 -16 -16
-5 -6 -6 -6 -6 -7 -7 -7 -7 -7 -8 -8 -8 -8 -8 -8 -8 -8 -9 -9 -9 -10 -10 -10 -11 -11 -11 -11 -11 -11 -11 -11 -11 -12 -12 -13 -13 -14 -15 -16 -16 -16
-6 -6 -6 -6 -6 -7 -7 -7 -7 -7 -8 -8 -8 -8 -8 -8 -8 -8 -9 -9 -9 -10 -10 -11 -11 -11 -11 -11 -11 -11 -11 -11 -11 -12 -12 -13 -14 -14 -15 -16 -16 -16
-6 -6 -6 -6 -6 -6 -7 -7 -7 -7 -7 -8 -8 -8 -8 -8 -8 -8 -9 -9 -9 -10 -10 -11 -11 -11 -11 -11 -11 -11 -11 -11 -11 -12 -12 -13 -13 -14 -15 -15 -16 -16
-6 -6 -6 -7 -6 -7 -7 -7 -7 -7 -7 -8 -8 -8 -8 -8 -8 -8 -9 -9 -9 -9 -10 -10 -11 -11 -11 -11 -11 -11 -11 -11 -11 -12 -12 -13 -13 -14 -15 -15 -16 -16
-6 -7 -7 -7 -7 -7 -7 -7 -7 -7 -7 -8 -8 -8 -8 -9 -8 -8 -9 -9 -9 -9 -10 -10 -11 -11 -11 -11 -11 -11 -11 -11 -12 -12 -12 -13 -13 -14 -14 -15 -16 -16
-6 -7 -7 -7 -7 -7 -7 -7 -7 -7 -7 -8 -8 -8 -8 -9 -9 -9 -9 -9 -9 -10 -10 -10 -11 -11 -11 -11 -11 -11 -11 -11 -12 -12 -12 -13 -13 -14 -14 -15 -15 -16
-6 -7 -7 -7 -7 -7 -7 -7 -7 -7 -8 -8 -8 -8 -8 -9 -9 -9 -9 -9 -10 -10 -10 -11 -11 -11 -11 -12 -12 -12 -11 -12 -12 -12 -12 -13 -13 -14 -14 -15 -15 -16
-7 -7 -7 -7 -7 -7 -7 -7 -7 -7 -8 -8 -8 -8 -9 -9 -9 -10 -10 -10 -10 -10 -11 -11 -11 -11 -12 -12 -12 -12 -12 -12 -12 -12 -12 -13 -13 -14 -14 -14 -15 -16
-7 -7 -7 -7 -7 -8 -8 -7 -7 -7 -8 -8 -8 -9 -9 -9 -9 -10 -10 -10 -11 -11 -11 -11 -11 -12 -12 -12 -12 -12 -12 -12 -12 -12 -13 -13 -13 -14 -14 -14 -15 -15
-8 -8 -8 -8 -8 -8 -8 -7 -7 -7 -8 -8 -8 -9 -9 -9 -9 -9 -10 -10 -11 -11 -11 -11 -12 -12 -12 -12 -12 -12 -12 -12 -13 -13 -13 -13 -14 -14 -14 -14 -15 -15
-8 -8 -8 -8 -8 -8 -8 -8 -8 -8 -8 -8 -8 -8 -9 -9 -9 -9 -9 -10 -11 -11 -11 -11 -12 -12 -13 -13 -13 -13 -12 -12 -13 -13 -13 -13 -14 -14 -14 -14 -15 -15
-8 -8 -8 -8 -9 -9 -8 -8 -8 -8 -8 -8 -9 -9 -9 -9 -9 -9 -10 -10 -11 -11 -11 -11 -12 -12 -13 -13 -13 -13 -13 -13 -13 -13 -13 -13 -14 -14 -14 -14 -15 -15
-9 -9 -9 -9 -9 -9 -9 -9 -8 -8 -8 -9 -9 -9 -9 -9 -9 -9 -10 -10 -11 -11 -12 -12 -12 -12 -13 -13 -13 -13 -13 -13 -13 -13 -13 -14 -14 -14 -14 -14 -15 -16
-9 -9 -9 -9 -9 -9 -9 -9 -9 -9 -9 -9 -9 -9 -9 -9 -9 -9 -10 -10 -11 -11 -12 -12 -12 -12 -13 -13 -13 -13 -13 -13 -13 -13 -13 -14 -14 -14 -14 -14 -15 -16
Height
2951 2949 2947 2947 2945 2944 2942 2940 2939 2937 2934 2932 2930 2928 2926 2924 2922 2921 2920 2919 2917 2915 2912 2910 2907 2905 2902 2898 2895 2891 2888 2884 2879 2875 2871 2867 2863 2859 2856 2853 2850 2847
2946 2944 2943 2942 2941 2939 2938 2936 2935 2933 2931 2928 2926 2924 2922 2920 2918 2917 2916 2914 2913 2911 2909 2907 2904 2902 2899 2895 2892 2888 2885 2880 2876 2872 2868 2864 2860 2856 2853 2850 2847 2844
2942 2940 2939 2938 2937 2935 2934 2932 2930 2929 2927 2924 2923 2920 2918 2916 2914 2913 2912 2910 2909 2907 2905 2903 2901 2899 2896 2893 2889 2885 2882 2877 2873 2869 2865 2861 2857 2853 2850 2847 2845 2842
2936 2935 2934 2933 2932 2931 2929 2928 2926 2925 2923 2921 2919 2917 2915 2913 2911 2909 2908 2907 2905 2903 2901 2900 2898 2896 2893 2890 2886 2883 2879 2874 2870 2865 2862 2858 2854 2851 2848 2844 2842 2840
2931 2930 2929 2928 2927 2926 2925 2924 2922 2921 2919 2917 2915 2913 2911 2909 2907 2905 2904 2903 2901 2900 2898 2896 2894 2892 2890 2887 2883 2880 2876 2872 2867 2863 2859 2856 2852 2848 2845 2842 2839 2837
2927 2925 2924 2923 2922 2922 2921 2919 2918 2917 2915 2913 2912 2910 2908 2905 2903 2902 2900 2899 2898 2896 2894 2892 2890 2888 2886 2883 2880 2877 2873 2869 2864 2860 2857 2853 2849 2846 2842 2839 2836 2834
2923 2921 2920 2919 2918 2917 2916 2915 2913 2912 2911 2909 2908 2906 2904 2902 2900 2898 2897 2896 2894 2892 2890 2889 2886 2885 2883 2880 2877 2874 2870 2866 2862 2858 2854 2850 2847 2843 2840 2837 2834 2831
2919 2918 2917 2915 2914 2913 2912 2910 2909 2908 2907 2905 2904 2902 2900 2898 2896 2895 2893 2892 2890 2888 2886 2885 2883 2881 2879 2876 2874 2871 2867 2864 2860 2856 2852 2848 2844 2841 2838 2834 2831 2828
2916 2915 2914 2912 2910 2909 2908 2906 2904 2904 2903 2901 2900 2898 2896 2894 2893 2891 2889 2888 2886 2885 2883 2881 2879 2877 2875 2873 2871 2868 2864 2861 2857 2854 2850 2846 2842 2839 2835 2832 2829 2826
2914 2912 2911 2909 2907 2905 2904 2901 2899 2899 2898 2897 2896 2894 2892 2891 2889 2887 2885 2884 2882 2881 2879 2877 2876 2874 2872 2870 2867 2865 2862 2858 2855 2851 2847 2843 2840 2836 2833 2830 2827 2824
2911 2909 2907 2906 2904 2902 2899 2896 2895 2895 2894 2893 2891 2889 2888 2887 2885 2883 2881 2880 2878 2877 2875 2874 2872 2871 2869 2866 2864 2862 2859 2856 2852 2849 2845 2841 2837 2834 2830 2827 2824 2821
2908 2906 2904 2902 2900 2898 2895 2893 2892 2891 2889 2888 2887 2885 2884 2883 2881 2880 2878 2876 2874 2873 2871 2870 2869 2867 2865 2863 2861 2858 2856 2853 2850 2846 2843 2839 2835 2832 2828 2824 2821 2818
2904 2902 2900 2898 2896 2893 2891 2890 2889 2887 2885 2884 2883 2881 2880 2879 2878 2876 2874 2872 2870 2869 2867 2866 2865 2863 2861 2859 2857 2855 2853 2850 2847 2844 2840 2837 2833 2830 2826 2822 2819 2816
2899 2897 2895 2893 2891 2889 2887 2885 2884 2882 2881 2880 2879 2878 2876 2875 2874 2872 2871 2869 2867 2865 2863 2862 2861 2859 2857 2856 2854 2852 2850 2847 2845 2841 2838 2835 2832 2828 2824 2821 2818 2814
2895 2893 2891 2889 2887 2885 2882 2880 2879 2878 2876 2875 2875 2873 2872 2870 2869 2868 2867 2865 2863 2862 2860 2858 2857 2855 2854 2852 2850 2848 2846 2844 2842 2839 2836 2833 2830 2826 2823 2819 2815 2812
2892 2889 2886 2884 2882 2880 2878 2876 2875 2873 2872 2871 2870 2869 2867 2866 2865 2864 2863 2862 2860 2858 2856 2855 2853 2851 2850 2848 2847 2844 2843 2841 2838 2836 2833 2830 2827 2824 2821 2817 2813 2810
2888 2885 2883 2880 2877 2875 2874 2872 2871 2868 2866 2866 2866 2864 2863 2861 2861 2860 2859 2858 2856 2855 2853 2851 2850 2848 2846 2845 2843 2841 2839 2838 2835 2833 2830 2827 2824 2821 2818 2815 2811 2808
2883 2881 2878 2876 2873 2871 2869 2868 2866 2864 2862 2861 2861 2860 2858 2857 2856 2855 2854 2854 2852 2850 2849 2848 2846 2844 2842 2841 2840 2838 2836 2834 2832 2829 2827 2824 2821 2818 2815 2812 2809 2805
2879 2876 2874 2871 2869 2867 2865 2863 2861 2859 2858 2857 2855 2854 2853 2852 2852 2851 2850 2849 2848 2846 2845 2843 2842 2840 2838 2837 2836 2835 2833 2830 2828 2826 2824 2821 2818 2815 2812 2809 2806 2803
2874 2871 2869 2866 2864 2862 2860 2858 2857 2855 2854 2852 2851 2849 2848 2848 2847 2846 2846 2845 2844 2842 2840 2839 2838 2836 2834 2834 2833 2831 2830 2827 2825 2823 2821 2818 2815 2813 2810 2807 2803 2800
2870 2866 2864 2861 2859 2857 2855 2854 2852 2850 2849 2848 2846 2845 2844 2844 2843 2841 2841 2840 2839 2838 2837 2835 2834 2832 2831 2830 2829 2828 2827 2825 2822 2820 2818 2815 2813 2810 2807 2804 2801 2798
2865 2862 2859 2856 2854 2852 2850 2849 2847 2845 2844 2843 2842 2840 2839 2838 2838 2837 2836 2836 2835 2834 2833 2831 2830 2829 2827 2826 2825 2824 2824 2822 2820 2817 2815 2813 2810 2808 2805 2801 2798 2795
2861 2858 2855 2852 2849 2847 2845 2844 2842 2840 2839 2838 2837 2836 2835 2834 2833 2832 2832 2831 2830 2830 2829 2828 2826 2825 2824 2823 2822 2821 2820 2819 2817 2815 2813 2810 2808 2805 2802 2799 2795 2792
2856 2853 2850 2847 2844 2842 2840 2839 2837 2835 2834 2833 2831 2831 2830 2829 2828 2828 2827 2827 2826 2826 2825 2824 2823 2821 2820 2819 2818 2818 2817 2816 2814 2812 2810 2808 2805 2803 2800 2797 2793 2790
2851 2849 2846 2843 2840 2837 2836 2834 2832 2831 2829 2828 2827 2826 2825 2825 2824 2823 2823 2822 2822 2821 2821 2820 2819 2818 2817 2816 2815 2814 2814 2813 2812 2810 2808 2806 2803 2801 2798 2795 2791 2788
2846 2843 2841 2838 2835 2833 2831 2829 2827 2826 2825 2823 2823 2822 2821 2820 2819 2819 2819 2818 2818 2817 2817 2816 2815 2814 2813 2812 2811 2810 2810 2809 2808 2807 2806 2803 2801 2799 2796 2793 2790 2787
Wind_Speed
37 38 38 38 38 38 36 36 36 32 29 28 28 29 29 27 26 26 28 30 32 31 31 31 31 32 33 34 35 36 37 37 38 38 38 38 37 36 33 30 28 27
35 36 36 36 37 36 35 35 34 31 28 27 27 28 28 27 26 26 28 30 31 31 30 31 31 32 32 33 35 36 36 37 37 37 37 37 36 35 33 30 28 26
33 34 34 34 35 35 34 34 33 30 27 26 26 27 28 26 25 26 28 29 31 31 30 30 31 31 32 33 34 35 36 36 36 37 37 36 36 35 33 31 28 26
32 31 31 32 34 34 33 33 32 30 27 26 25 26 27 25 25 26 27 29 30 30 30 30 31 31 32 33 34 35 35 35 36 36 36 35 35 35 33 31 28 26
32 30 29 31 33 33 33 33 32 29 27 25 25 26 26 25 25 26 27 28 29 29 29 30 30 31 31 32 33 34 34 34 35 35 35 34 34 33 32 31 30 27
31 29 29 30 32 32 32 32 32 29 27 25 25 25 25 25 25 26 27 28 29 29 29 29 30 30 31 32 33 34 34 34 34 35 35 34 33 33 32 31 30 29
31 29 29 30 30 31 31 33 32 29 27 25 25 24 25 25 25 26 27 28 29 29 29 29 29 30 30 31 32 33 33 33 33 34 34 34 34 33 32 31 31 30
30 29 29 30 29 29 31 33 32 29 27 26 24 24 24 25 26 27 27 28 29 29 29 29 29 30 30 31 32 33 33 33 33 34 33 33 33 33 32 31 31 30
29 29 29 29 29 29 31 34 33 29 27 26 25 24 24 25 26 26 27 28 29 29 29 29 29 29 30 30 31 32 33 33 33 33 33 33 33 33 32 31 31 30
29 30 31 31 30 30 32 34 33 29 27 26 25 24 24 25 26 26 27 28 28 29 29 29 29 29 29 30 31 32 32 32 33 33 33 33 33 33 32 32 31 30
30 31 32 33 32 33 34 35 32 28 27 26 25 24 24 25 26 26 27 27 28 29 29 29 29 29 29 29 30 31 32 32 33 32 32 33 33 33 32 32 32 31
30 32 33 34 33 34 35 35 31 28 27 27 25 25 24 25 26 27 27 27 27 28 28 28 29 28 28 29 30 31 32 32 32 32 32 32 32 32 32 31 31 31
29 31 33 33 33 34 35 35 33 29 28 28 26 25 25 26 27 28 28 28 27 27 27 27 28 28 28 29 29 31 31 32 32 32 31 31 31 32 31 30 30 30
28 29 31 32 32 33 34 35 34 30 29 29 27 25 26 27 28 28 29 28 27 26 25 25 26 27 28 28 29 30 31 31 31 31 31 30 30 30 30 29 29 29
29 28 29 31 31 32 33 35 34 31 30 30 27 26 26 27 27 29 29 28 27 26 24 24 24 26 27 27 28 30 31 31 31 31 31 30 29 29 28 29 29 28
31 30 30 30 30 31 32 34 34 32 31 31 28 26 27 27 27 29 30 28 27 26 25 24 24 25 27 27 28 29 30 30 30 31 30 30 29 28 27 28 28 27
33 32 32 31 31 30 31 32 34 33 32 32 30 28 28 27 27 29 29 28 27 26 25 24 24 25 26 27 28 29 30 30 30 30 30 30 29 28 27 27 27 27
34 33 33 34 33 31 30 31 33 34 34 32 30 30 30 29 28 29 29 28 28 27 25 24 24 25 26 26 27 29 30 29 29 30 30 29 29 29 28 27 27 26
36 33 33 35 35 33 32 32 33 34 35 33 30 29 30 29 29 29 29 29 29 28 25 24 24 25 25 25 26 28 29 29 28 29 29 29 29 29 28 27 27 27
37 35 33 34 35 36 35 35 34 34 35 34 31 30 29 29 29 29 29 30 31 29 27 26 25 25 24 24 25 27 28 28 27 28 28 28 28 28 27 27 27 27
37 36 33 32 34 36 37 37 35 34 34 33 32 30 28 28 29 29 29 31 31 29 28 27 26 25 24 23 24 26 27 27 26 26 27 27 27 27 27 27 27 27
37 36 34 33 32 33 36 38 37 35 34 33 32 31 29 28 30 31 31 31 31 29 28 28 27 26 23 22 23 24 26 26 25 25 26 26 26 27 27 27 27 28
37 36 35 34 32 31 33 36 38 37 35 34 33 31 30 30 31 32 32 31 30 28 28 29 28 26 24 21 21 23 24 24 24 25 25 25 25 26 26 27 27 28
37 36 35 34 33 31 31 32 35 37 36 35 33 32 31 32 33 32 32 32 30 27 27 28 27 27 25 21 20 21 22 22 23 24 24 25 25 25 26 26 26 28
37 36 35 34 34 33 31 30 31 34 35 36 35 34 32 33 34 34 34 34 31 27 26 27 27 26 25 22 19 20 21 20 21 23 23 24 24 24 25 26 26 26
37 36 35 34 33 34 33 31 30 31 33 34 36 36 35 36 36 36 36 36 33 28 26 26 26 26 25 22 20 19 19 19 20 22 23 23 23 23 24 24 25 25
Wind_Direction
291 290 287 286 288 291 292 295 299 302 305 308 311 313 314 313 312 313 315 316 316 314 315 317 318 320 321 324 327 329 330 331 333 335 336 336 337 337 334 328 322 318
292 290 287 285 287 289 291 294 298 301 303 306 310 312 312 312 312 313 314 315 316 315 315 316 317 318 320 323 326 328 329 331 333 335 336 336 337 337 334 328 321 316
292 290 287 285 286 288 290 293 296 300 302 305 308 310 311 312 312 313 313 314 316 316 315 315 316 317 320 323 326 327 329 331 333 335 336 336 336 336 333 328 321 314
291 289 285 283 284 286 289 291 295 299 300 302 305 307 309 311 313 312 312 313 315 316 315 315 316 317 320 323 325 327 328 330 333 334 335 336 336 336 333 327 321 313
291 285 281 280 282 285 288 290 294 297 298 300 303 305 308 311 313 312 311 312 314 316 316 315 316 317 319 323 324 326 328 330 333 334 334 336 335 335 332 328 322 315
293 285 279 278 280 284 287 290 292 295 296 298 300 302 306 311 313 311 309 309 312 316 317 315 316 317 318 322 323 325 327 330 332 333 334 335 335 334 332 329 324 317
298 288 280 278 280 284 287 288 290 294 294 295 297 300 305 310 312 310 307 307 310 314 317 316 316 316 318 321 323 324 327 330 332 333 333 334 335 334 332 329 326 320
303 293 284 281 282 284 287 287 289 293 294 294 296 298 304 309 310 309 307 306 309 313 316 317 315 316 317 319 321 323 326 329 331 332 333 333 334 333 332 330 328 323
308 302 293 289 288 287 288 287 288 293 294 292 294 297 302 306 307 308 306 305 307 311 315 316 315 315 316 318 320 322 325 328 330 332 332 333 333 333 332 330 329 325
310 307 302 297 294 291 288 285 286 292 293 292 292 295 300 303 305 306 305 304 306 309 313 315 314 313 315 317 319 321 324 327 329 331 332 333 333 333 332 330 329 328
308 307 305 301 296 292 287 283 285 291 293 291 291 294 298 300 302 303 303 303 304 307 311 313 313 313 314 318 319 320 323 325 327 330 331 332 333 332 332 331 330 329
307 306 305 303 298 294 289 286 287 292 292 291 290 293 296 297 298 300 300 301 301 305 310 312 312 312 314 318 320 320 322 324 326 329 331 332 332 331 331 331 329 327
307 304 304 305 301 296 293 291 289 290 291 290 290 293 295 295 296 297 298 298 299 303 308 310 311 312 313 317 319 320 321 323 325 328 330 331 331 331 331 330 328 326
305 304 304 306 303 299 297 293 288 289 291 290 291 294 295 294 294 295 296 297 298 300 304 308 309 310 312 314 317 318 320 322 325 326 329 331 331 331 331 328 327 327
305 303 303 304 303 300 298 293 288 288 290 290 291 293 292 292 292 294 295 295 296 298 301 305 307 309 310 312 314 316 318 321 324 325 327 330 330 331 330 328 328 329
309 303 301 301 301 299 296 294 290 286 286 288 290 289 289 290 291 291 292 292 295 298 300 303 305 307 308 309 311 314 316 320 323 324 326 329 330 331 330 329 330 330
314 305 300 298 298 296 293 293 290 284 282 285 288 287 287 288 288 288 289 291 294 296 299 302 304 306 306 307 309 310 314 318 321 323 325 327 329 331 331 331 331 332
318 309 301 297 296 294 291 290 288 284 281 283 285 286 286 286 286 286 287 289 290 292 296 300 302 303 304 304 306 308 311 317 320 321 324 327 329 331 332 332 333 334
320 315 306 298 294 293 290 287 286 284 282 282 281 281 283 285 285 286 286 287 288 289 293 296 296 298 301 301 302 305 309 315 319 320 323 326 329 331 332 333 334 336
321 319 312 303 296 293 289 287 286 284 281 282 283 283 285 287 287 287 287 287 287 288 292 293 292 293 298 298 299 303 308 313 318 319 322 326 328 329 331 333 335 338
322 320 316 311 303 296 290 286 284 283 279 281 285 286 286 288 288 289 289 288 288 289 292 293 291 291 294 296 297 300 306 312 316 318 321 325 327 328 330 333 336 339
322 321 318 314 309 301 294 287 282 280 277 278 283 286 286 288 289 289 289 289 290 292 293 292 291 290 291 294 295 299 305 311 315 318 320 323 325 327 330 333 336 340
320 320 318 315 311 306 300 291 282 277 275 276 279 283 285 286 286 286 288 289 291 294 295 293 292 290 289 291 294 297 303 310 314 317 319 322 324 326 330 334 337 340
317 317 316 315 312 308 303 296 289 281 277 275 276 279 282 283 283 285 287 288 289 293 294 293 292 291 288 289 293 295 300 308 313 315 317 320 323 326 329 334 338 341
313 314 314 314 313 310 305 300 295 289 283 279 277 279 281 282 283 286 287 287 288 291 292 292 292 291 289 288 291 293 298 306 312 314 315 318 322 325 329 334 339 341
310 311 312 312 311 310 308 304 299 294 290 286 283 283 282 282 283 285 286 287 289 289 291 292 292 291 289 288 288 291 295 303 311 314 315 317 321 325 329 334 339 341